Weather History for Langley AFB, VA

Change the Weather History Date:

Thursday, November 29, 2012

  Actual Average Record
Temperature  
Mean Temperature 38 °F -  
Max Temperature 48 °F 55 °F 73 °F (1960)
Min Temperature 29 °F 38 °F 20 °F (1955)
Degree Days  
Heating Degree Days 26    
Moisture  
Dew Point 28 °F    
Average Humidity 76    
Maximum Humidity 100    
Minimum Humidity 33    
Precipitation  
Precipitation 0.00 in - - ()
Sea Level Pressure  
Sea Level Pressure 30.43 in    
Wind  
Wind Speed 2 mph (SE)    
Max Wind Speed 8 mph    
Max Gust Speed -    
Visibility 8 miles    
Events      
Averages and records for this station are not official NWS values.
T = Trace of Precipitation, MM = Missing Value Source: NWS Daily Summary

Daily Weather History Graph

Daily Weather History Graph

Search for Another Location

Airport:

Trip Planner

Search our weather history database for the weather conditions in past years. The results will help you decide how hot, cold, wet, or windy it might be!

Date:

Astronomy

Nov. 29, 2012 Rise Set
Actual Time 6:58 AM EST 4:48 PM EST
Civil Twilight 6:30 AM EST 5:17 PM EST
Nautical Twilight 5:58 AM EST 5:49 PM EST
Astronomical Twilight 5:26 AM EST 6:20 PM EST
Moon 5:50 PM EST (11/29) 7:43 AM EST (11/29)
Length of Visible Light 10h 47m
Length of Day
9h 50m
Full, 99% of the Moon is Illuminated
Nov 29
Full
Dec 6
Last Quarter
Dec 13
New
Dec 20
First Quarter
Dec 28
Full

Hourly Weather History & Observations

Time (EST) Temp. Windchill Dew Point Humidity Pressure Visibility Wind Dir Wind Speed Gust Speed Precip Events Conditions
12:55 AM 30.0 °F 25.2 °F 28.4 °F 94% 30.39 in 10.0 mi WNW 4.6 mph - N/A   Clear
1:55 AM 29.8 °F - 28.4 °F 94% 30.40 in 10.0 mi Calm Calm - N/A   Clear
2:55 AM 29.1 °F 25.4 °F 27.7 °F 94% 30.42 in 9.0 mi West 3.5 mph - N/A   Clear
3:38 AM 30.2 °F - 30.2 °F 100% 30.42 in 8.0 mi Calm Calm - N/A   Clear
3:45 AM 30.2 °F - 30.2 °F 100% 30.42 in 6.0 mi Calm Calm - N/A   Clear
3:55 AM 30.6 °F - 29.3 °F 95% 30.42 in 7.0 mi Calm Calm - N/A   Clear
3:56 AM 30.2 °F - 28.4 °F 93% 30.42 in 7.0 mi Calm Calm - N/A   Clear
4:03 AM 30.2 °F - 28.4 °F 93% 30.42 in 7.0 mi Calm Calm - N/A   Clear
4:17 AM 30.2 °F - 28.4 °F 93% 30.42 in 6.0 mi Calm Calm - N/A   Clear
4:19 AM 30.2 °F - 28.4 °F 93% 30.42 in 2.5 mi Calm Calm - N/A   Clear
4:26 AM 30.2 °F - 28.4 °F 93% 30.42 in 1.8 mi Calm Calm - N/A   Clear
4:29 AM 30.2 °F - 28.4 °F 93% 30.42 in 3.0 mi Calm Calm - N/A   Clear
4:31 AM 30.2 °F - 28.4 °F 93% 30.42 in 4.0 mi Calm Calm - N/A   Clear
4:40 AM 30.2 °F - 28.4 °F 93% 30.42 in 8.0 mi Calm Calm - N/A   Clear
4:55 AM 29.7 °F - 28.6 °F 96% 30.42 in 7.0 mi Calm Calm - N/A   Clear
5:55 AM 29.1 °F - 27.9 °F 95% 30.43 in 10.0 mi Calm Calm - N/A   Clear
6:55 AM 29.8 °F - 28.6 °F 95% 30.45 in 10.0 mi Calm Calm - N/A   Clear
7:55 AM 31.1 °F - 28.2 °F 89% 30.47 in 10.0 mi Calm Calm - N/A   Clear
8:26 AM 35.6 °F - 33.8 °F 93% 30.48 in 10.0 mi Calm Calm - N/A   Clear
8:33 AM 37.4 °F 34.9 °F 33.8 °F 87% 30.48 in 10.0 mi Variable 3.5 mph - N/A   Clear
8:55 AM 42.3 °F 40.5 °F 30.2 °F 62% 30.48 in 10.0 mi NNE 3.5 mph - 0.00 in   Clear
9:55 AM 45.5 °F 42.5 °F 26.4 °F 47% 30.50 in 10.0 mi ENE 5.8 mph - N/A   Clear
10:55 AM 46.6 °F - 19.9 °F 35% 30.49 in 10.0 mi ENE 6.9 mph - N/A   Clear
11:55 AM 47.5 °F - 19.8 °F 33% 30.48 in 10.0 mi Variable 4.6 mph - N/A   Clear
12:55 PM 47.8 °F - 21.4 °F 35% 30.46 in 10.0 mi East 6.9 mph - N/A   Clear
1:55 PM 48.6 °F - 22.1 °F 35% 30.43 in 10.0 mi ENE 6.9 mph - N/A   Clear
2:55 PM 48.9 °F - 20.7 °F 33% 30.40 in 10.0 mi SE 8.1 mph - N/A   Clear
3:55 PM 46.4 °F 43.5 °F 22.5 °F 39% 30.40 in 10.0 mi SE 5.8 mph - N/A   Clear
4:55 PM 44.4 °F 42.0 °F 25.3 °F 47% 30.40 in 10.0 mi SE 4.6 mph - N/A   Clear
5:55 PM 43.3 °F 40.7 °F 27.7 °F 54% 30.40 in 10.0 mi SSE 4.6 mph - N/A   Clear
6:55 PM 43.0 °F 40.3 °F 27.5 °F 54% 30.41 in 10.0 mi SSE 4.6 mph - N/A   Clear
7:27 PM 41.0 °F 39.0 °F 28.4 °F 61% 30.40 in 10.0 mi SSW 3.5 mph - N/A   Clear
7:55 PM 41.2 °F 39.2 °F 29.5 °F 63% 30.42 in 10.0 mi South 3.5 mph - N/A   Clear
8:55 PM 39.2 °F - 32.5 °F 77% 30.42 in 10.0 mi Calm Calm - N/A   Clear
9:55 PM 37.2 °F 34.7 °F 33.1 °F 85% 30.42 in 10.0 mi SSW 3.5 mph - N/A   Clear
10:55 PM 36.0 °F - 32.0 °F 86% 30.41 in 10.0 mi Calm Calm - N/A   Clear
11:55 PM 35.2 °F - 32.0 °F 88% 30.41 in 10.0 mi Calm Calm - N/A   Clear